Salisbury, MD

4:03 AM EST on February 13, 2016 (GMT -0500)
Salisbury-Ocean City Wicomico Regional

Weather History for KSBY - May, 2013

Change the Weather History Date:

Thursday, May 30, 2013

  Actual Average Record
Temperature  
Mean Temperature 80 °F 67 °F  
Max Temperature 89 °F 77 °F 95 °F (1987)
Min Temperature 70 °F 56 °F 40 °F (1925)
Degree Days  
Heating Degree Days 0 2  
Month to date heating degree days 114 140  
Since 1 July heating degree days 3862 4420  
Cooling Degree Days 15 4  
Month to date cooling degree days 130 63  
Year to date cooling degree days 176 80  
Growing Degree Days 30 (Base 50)    
Moisture  
Dew Point 66 °F    
Average Humidity 66    
Maximum Humidity 84    
Minimum Humidity 47    
Precipitation  
Precipitation 0.00 in 0.13 in 2.16 in (1984)
Month to date precipitation 3.32 3.49  
Year to date precipitation 18.65 18.42  
Snow  
Snow 0.00 in 0.00 in 0.00 in (2002)
Month to date snowfall 0.0 0.0  
Since 1 July snowfall 2.8 9.3  
Snow Depth 0.00 in    
Sea Level Pressure  
Sea Level Pressure 30.18 in    
Wind  
Wind Speed 8 mph (SSW)    
Max Wind Speed 14 mph    
Max Gust Speed 20 mph    
Visibility 10 miles    
Events      
T = Trace of Precipitation, MM = Missing Value Source: NWS Daily Summary

Daily Weather History Graph

Daily Weather History Graph

Search for Another Location

Airport or City:

Trip Planner

Search our weather history database for the weather conditions in past years. The results will help you decide how hot, cold, wet, or windy it might be!

Date:

Astronomy

May. 30, 2013 Rise Set
Actual Time 5:40 AM EDT 8:18 PM EDT
Civil Twilight 5:10 AM EDT 8:49 PM EDT
Nautical Twilight 4:31 AM EDT 9:28 PM EDT
Astronomical Twilight 3:48 AM EDT 10:11 PM EDT
Moon 12:21 AM EDT (5/30) 11:43 AM EDT (5/30)
Length of Visible Light 15h 39m
Length of Day
14h 37m
Waning Gibbous, 62% of the Moon is Illuminated
May 30
Waning Gibbous
May 31
Last Quarter
Jun 8
New
Jun 16
First Quarter
Jun 23
Full

Hourly Weather History & Observations

Time (EDT) Temp. Heat Index Dew Point Humidity Pressure Visibility Wind Dir Wind Speed Gust Speed Precip Events Conditions
12:54 AM 75.0 °F - 64.0 °F 69% 30.16 in 10.0 mi SSW 8.1 mph - N/A   Clear
1:54 AM 73.9 °F - 64.0 °F 71% 30.17 in 10.0 mi SSW 8.1 mph - N/A   Clear
2:54 AM 73.0 °F - 64.0 °F 73% 30.17 in 10.0 mi SSW 6.9 mph - N/A   Clear
3:54 AM 72.0 °F - 64.0 °F 76% 30.18 in 10.0 mi SSW 5.8 mph - N/A   Clear
4:54 AM 70.0 °F - 64.0 °F 81% 30.18 in 10.0 mi SSW 6.9 mph - N/A   Clear
5:54 AM 70.0 °F - 64.0 °F 81% 30.19 in 10.0 mi SSW 8.1 mph - N/A   Clear
6:54 AM 72.0 °F - 64.9 °F 78% 30.21 in 10.0 mi SSW 6.9 mph - N/A   Clear
7:54 AM 75.0 °F - 64.9 °F 71% 30.21 in 10.0 mi SW 8.1 mph - N/A   Clear
8:54 AM 78.1 °F - 64.9 °F 64% 30.22 in 10.0 mi SW 11.5 mph - N/A   Clear
9:54 AM 80.1 °F 82.1 °F 66.0 °F 62% 30.21 in 10.0 mi SSW 11.5 mph - N/A   Clear
10:54 AM 81.0 °F 83.0 °F 66.0 °F 60% 30.22 in 10.0 mi SSW 11.5 mph - N/A   Clear
11:54 AM 84.0 °F 86.5 °F 66.9 °F 56% 30.21 in 10.0 mi SW 10.4 mph - N/A   Clear
12:54 PM 86.0 °F 88.8 °F 66.9 °F 53% 30.20 in 10.0 mi WSW 11.5 mph - N/A   Clear
1:54 PM 88.0 °F 91.4 °F 68.0 °F 51% 30.19 in 10.0 mi WSW 10.4 mph - N/A   Clear
2:54 PM 88.0 °F 91.4 °F 68.0 °F 51% 30.17 in 10.0 mi SW 9.2 mph - N/A   Clear
3:54 PM 89.1 °F 92.1 °F 66.9 °F 48% 30.16 in 10.0 mi SW 11.5 mph - N/A   Clear
4:54 PM 89.1 °F 91.3 °F 66.0 °F 46% 30.16 in 10.0 mi WSW 11.5 mph - N/A   Clear
5:54 PM 88.0 °F 90.3 °F 66.0 °F 48% 30.15 in 10.0 mi SSW 10.4 mph - N/A   Clear
6:54 PM 84.9 °F 87.6 °F 66.9 °F 55% 30.16 in 10.0 mi SSW 9.2 mph - N/A   Clear
7:54 PM 82.0 °F 84.5 °F 66.9 °F 60% 30.16 in 10.0 mi South 5.8 mph - N/A   Clear
8:54 PM 77.0 °F - 66.0 °F 69% 30.16 in 10.0 mi South 4.6 mph - N/A   Clear
9:54 PM 75.9 °F - 66.9 °F 74% 30.16 in 10.0 mi South 4.6 mph - N/A   Clear
10:54 PM 73.9 °F - 66.0 °F 76% 30.17 in 10.0 mi South 5.8 mph - N/A   Clear
11:54 PM 71.1 °F - 64.9 °F 81% 30.17 in 10.0 mi SSW 4.6 mph - N/A   Clear